Weather reports worldwide

Advertisment
St-Girons, France (7627): temperature & dewpoint: 09.12.2019 19:00:00 - 15.12.2019 19:00:00 (CET)St-Girons, France (7627): temperature 5cm: 09.12.2019 19:00:00 - 15.12.2019 19:00:00 (CET)St-Girons, France (7627): temperature -20cm & temperature -100cm: 09.12.2019 19:00:00 - 15.12.2019 19:00:00 (CET)St-Girons, France (7627): wind speed & gusts: 09.12.2019 19:00:00 - 15.12.2019 19:00:00 (CET)St-Girons, France (7627): wind direction: 09.12.2019 19:00:00 - 15.12.2019 19:00:00 (CET)St-Girons, France (7627): reduced air pressure: 09.12.2019 19:00:00 - 15.12.2019 19:00:00 (CET)St-Girons, France (7627): visibility: 09.12.2019 19:00:00 - 15.12.2019 19:00:00 (CET)St-Girons, France (7627): sunshine duration: 09.12.2019 19:00:00 - 15.12.2019 19:00:00 (CET)St-Girons, France (7627): precipitation: 09.12.2019 19:00:00 - 15.12.2019 19:00:00 (CET)
Date & Time tt [°C] td [°C] tt 5cm [°C] tt -20cm [°C] tt -100cm [°C] ff [km/h] ff [kn] fx [km/h] fx [kn] dd ppp [hPa] vv [km] sd [min] rr [mm]
15.12.2019 19:00:00 7,9 4,7 4,8 10,3 11,4 7 4 12 6 SSE 1010,7 20 0 0,0
15.12.2019 18:00:00 9,6 5,8 5,9 10,3 11,4 4 2 8 5 W 1010,2 20 0 0,0
15.12.2019 17:00:00 12,4 4,8 9,9 10,2 11,4 3 2 16 8 W 1009,2 20 29 0,0
15.12.2019 16:00:00 16,2 4,2 18,2 10,1 11,4 9 5 21 11 E 1008,6 20 60 0,0
15.12.2019 15:00:00 16,8 4,1 22,5 10,1 11,4 9 5 19 10 E 1008,9 20 60 0,0
15.12.2019 14:00:00 18,0 6,5 23,2 10,0 11,3 4 2 10 5 SE 1009,3 20 60 0,0
15.12.2019 13:00:00 16,7 5,3 20,7 10,1 11,4 4 2 9 5 SSE 1010,3 20 60 0,0
15.12.2019 12:00:00 14,1 4,7 17,8 10,1 11,4 8 4 13 7 SE 1011,2 20 60 0,0
15.12.2019 11:00:00 12,3 5,2 14,9 10,1 11,3 8 4 14 8 SSE 1011,9 20 60 0,0
15.12.2019 10:00:00 9,3 6,0 7,2 10,2 11,3 0 0 6 3 N 1012,3 20 57 0,0
15.12.2019 09:00:00 4,9 4,0 2,4 10,3 11,3 0 0 14 7 N 1012,6 20 11 0,0
15.12.2019 08:00:00 4,6 2,1 3,2 10,3 11,4 8 4 18 10 S 1012,5 20 0 0,0
15.12.2019 07:00:00 7,2 4,7 4,4 10,4 11,3 11 6 26 14 S 1011,6 20 0 0,0
15.12.2019 06:00:00 8,5 5,1 7,2 10,4 11,3 19 11 32 17 SSE 1011,3 20 0 0,0
15.12.2019 05:00:00 8,9 5,8 6,5 10,4 11,3 14 8 27 15 SE 1011,1 20 0 0,0
15.12.2019 04:00:00 8,8 6,2 3,9 10,4 11,3 17 9 25 13 SSE 1011,8 20 0 0,0
15.12.2019 03:00:00 6,5 5,0 3,8 10,5 11,3 2 1 18 10 SSE 1012,7 20 0 0,0
15.12.2019 02:00:00 8,2 6,7 4,6 10,5 11,3 11 6 17 9 SE 1012,4 20 0 0,0
15.12.2019 01:00:00 8,7 6,7 7,5 10,5 11,3 9 5 19 11 SE 1012,7 20 0 0,0
15.12.2019 00:00:00 9,5 7,3 7,7 10,4 11,3 4 2 9 5 SE 1013,4 20 0 0,0
14.12.2019 23:00:00 9,1 7,7 7,0 10,5 11,3 4 2 13 7 S 1013,3 20 0 0,0
14.12.2019 22:00:00 9,3 7,2 7,7 10,4 11,3 9 5 15 8 S 1012,5 20 0 0,0
14.12.2019 21:00:00 10,2 7,6 8,6 10,5 11,3 9 5 12 6 S 1013,2 20 0 0,0
14.12.2019 20:00:00 11,4 7,9 10,1 10,4 11,3 5 3 10 6 SE 1012,9 20 0 0,0
14.12.2019 19:00:00 11,4 8,3 10,1 10,4 11,3 6 3 7 4 S 1013,2 20 0 0,0
14.12.2019 18:00:00 11,1 8,0 8,3 10,3 11,3 4 2 5 3 W 1013,3 20 0 0,0
14.12.2019 17:00:00 13,9 7,0 10,1 10,3 11,3 2 1 15 8 N 1012,9 20 13 0,0
14.12.2019 16:00:00 15,7 7,7 16,1 10,2 11,3 8 4 22 12 WNW 1012,9 20 42 0,0
14.12.2019 15:00:00 15,6 8,1 16,1 10,2 11,3 21 11 36 19 NNW 1012,9 20 43 0,0
14.12.2019 14:00:00 16,0 8,0 14,9 10,1 11,3 15 8 24 13 NW 1013,0 20 30 0,0
14.12.2019 13:00:00 15,5 8,2 17,4 10,1 11,3 11 6 23 12 NW 1013,9 20 18 0,0
14.12.2019 12:00:00 14,4 8,6 14,6 10,0 11,2 0 0 9 5 N 1014,4 20 0 0,0
14.12.2019 11:00:00 13,3 8,6 12,8 10,1 11,3 3 2 15 8 ENE 1015,3 20 0 0,0
14.12.2019 10:00:00 13,1 7,3 12,1 10,1 11,3 12 7 29 16 WNW 1015,1 20 0 0,0
14.12.2019 09:00:00 13,0 7,0 11,1 10,1 11,3 14 8 35 19 WNW 1014,5 20 0 0,0
14.12.2019 08:00:00 12,1 7,4 10,8 10,1 11,3 10 5 22 12 NW 1013,9 20 0 0,0
14.12.2019 07:00:00 12,4 7,3 10,8 10,1 11,3 10 5 24 13 NW 1013,3 20 0 0,0
14.12.2019 06:00:00 12,2 7,3 9,8 10,1 11,3 14 8 35 19 WNW 1012,8 20 0 0,0
14.12.2019 05:00:00 13,0 6,1 10,0 10,1 11,3 21 12 41 22 NW 1012,1 20 0 0,0
14.12.2019 04:00:00 11,4 6,7 8,8 10,1 11,3 2 1 29 15 NNE 1011,8 20 0 0,0
14.12.2019 03:00:00 11,3 6,4 8,7 10,1 11,3 6 3 54 29 W 1011,5 20 0 0,0
14.12.2019 02:00:00 11,9 6,6 10,6 10,1 11,3 29 16 66 35 WNW 1010,6 20 0 0,0
14.12.2019 01:00:00 12,1 6,4 10,7 10,1 11,3 35 19 76 41 WNW 1010,2 20 0 0,0
14.12.2019 00:00:00 11,7 7,8 10,4 10,1 11,3 30 16 75 41 WNW 1010,4 20 0 0,0
13.12.2019 23:00:00 11,6 9,2 10,4 10,0 11,3 35 19 73 40 WNW 1009,9 20 0 0,0
13.12.2019 22:00:00 12,8 8,9 10,7 10,0 11,3 37 20 84 45 WNW 1009,1 13 0 0,4
13.12.2019 21:00:00 12,0 10,2 11,0 10,0 11,3 27 15 85 46 WNW 1008,0 3,9 0 1,4
13.12.2019 20:00:00 12,8 10,3 11,3 10,0 11,3 30 16 79 43 W 1007,1 10 0 1,4
13.12.2019 19:00:00 12,4 10,5 11,1 9,9 11,3 27 14 66 35 WNW 1006,5 7 0 1,6
13.12.2019 18:00:00 12,1 10,3 10,9 10,0 11,3 27 14 69 37 WNW 1006,2 10 0 1,2
13.12.2019 17:00:00 12,1 10,0 10,4 9,9 11,3 32 17 65 35 WNW 1005,7 10 0 0,4
13.12.2019 16:00:00 10,8 9,9 10,1 9,9 11,3 18 10 66 36 WNW 1005,6 4,6 0 2,4
13.12.2019 15:00:00 11,8 8,5 10,4 9,8 11,3 34 19 79 42 WNW 1005,5 20 0 0,7
13.12.2019 14:00:00 11,0 9,9 10,4 9,8 11,3 36 19 82 44 WNW 1004,7 4,9 0 1,2
13.12.2019 13:00:00 10,5 9,7 10,2 9,7 11,3 19 11 63 34 NW 1003,3 4,1 0 5,6
13.12.2019 12:00:00 11,6 10,5 11,1 9,7 11,4 36 19 87 47 NW 1003,1 4,2 0 4,1
13.12.2019 11:00:00 12,9 9,7 11,1 9,7 11,4 42 23 77 42 W 1001,2 19 0 0,4
13.12.2019 10:00:00 12,9 9,5 11,1 9,6 11,3 46 25 85 46 WNW 1000,9 12 0 0,4
13.12.2019 09:00:00 12,7 9,9 11,0 9,6 11,4 44 24 91 49 WNW 999,8 9 0 1,4
13.12.2019 08:00:00 12,3 10,2 11,1 9,5 11,4 37 20 89 48 W 999,3 12 0 1,0
13.12.2019 07:00:00 12,2 10,6 11,3 9,5 11,4 34 18 86 47 WNW 998,6 7 0 1,2
13.12.2019 06:00:00 12,6 10,3 11,3 9,5 11,4 36 19 76 41 WNW 997,9 8 0 0,8
13.12.2019 05:00:00 12,7 10,2 11,3 9,4 11,4 36 19 65 35 WNW 998,2 9 0 0,4
13.12.2019 04:00:00 12,4 10,5 10,9 9,4 11,4 29 16 59 32 WNW 999,1 8 0 0,6
13.12.2019 03:00:00 11,8 10,4 10,4 9,4 11,4 19 10 42 23 WNW 999,5 6 0 3,8
13.12.2019 02:00:00 11,2 9,8 9,9 9,3 11,4 13 7 29 16 WNW 1000,0 7 0 3,9
13.12.2019 01:00:00 10,8 9,1 9,8 9,3 11,4 10 6 49 26 SW 1000,7 9 0 4,0
13.12.2019 00:00:00 10,9 8,8 9,7 9,2 11,4 18 10 49 26 W 1001,5 7 0 3,0
12.12.2019 23:00:00 11,0 8,6 9,6 9,2 11,4 22 12 49 26 WNW 1001,4 11 0 1,6
12.12.2019 22:00:00 10,6 8,7 9,2 9,2 11,4 14 7 43 23 WNW 1001,5 10 0 1,5
12.12.2019 21:00:00 10,4 8,0 9,0 9,2 11,4 18 10 52 28 NW 1002,1 20 0 0,6
12.12.2019 20:00:00 10,9 7,2 7,4 9,2 11,5 22 12 43 23 WNW 1001,7 15 0 1,4
12.12.2019 19:00:00 8,0 6,3 7,0 9,1 11,5 4 2 31 17 SSE 1002,2 13 0 1,4
12.12.2019 18:00:00 7,9 6,0 6,9 9,1 11,5 19 10 27 15 S 1002,9 19 0 1,6
12.12.2019 17:00:00 8,3 6,1 7,3 9,0 11,5 4 2 12 6 WNW 1004,3 12 0 0,4
12.12.2019 16:00:00 9,1 5,5 9,0 9,0 11,5 2 1 5 3 ESE 1005,3 20 0 0,0
12.12.2019 15:00:00 9,1 4,9 9,0 9,0 11,5 2 1 6 3 SE 1007,4 20 0 0,0
12.12.2019 14:00:00 9,2 5,7 9,3 8,9 11,5 4 2 9 5 SSE 1009,2 20 0 0,0
12.12.2019 13:00:00 9,2 4,6 8,9 8,9 11,5 4 2 10 6 SE 1010,8 20 4 0,0
12.12.2019 12:00:00 8,0 4,9 8,8 8,9 11,5 8 4 11 6 SSE 1012,7 20 0 0,0
12.12.2019 11:00:00 7,5 5,3 6,6 8,9 11,5 2 1 10 5 E 1014,0 20 21 0,0
12.12.2019 10:00:00 6,1 4,9 5,7 8,9 11,5 6 3 9 5 S 1014,9 20 0 0,0
12.12.2019 09:00:00 6,0 4,2 5,1 8,9 11,5 0 0 13 7 N 1015,9 19 0 0,6
12.12.2019 08:00:00 6,4 3,4 5,1 9,0 11,5 3 2 16 9 NNW 1016,0 20 0 0,2
12.12.2019 07:00:00 7,0 3,4 5,4 8,9 11,5 10 5 19 11 WNW 1016,1 20 0 0,0
12.12.2019 06:00:00 7,5 2,6 5,9 9,0 11,6 10 5 26 14 WSW 1016,2 20 0 0,0
12.12.2019 05:00:00 7,6 3,1 4,9 9,0 11,6 11 6 24 13 WNW 1016,9 20 0 0,2
12.12.2019 04:00:00 6,7 2,9 5,3 9,0 11,6 4 2 38 20 WNW 1017,8 20 0 0,0
12.12.2019 03:00:00 7,4 2,1 6,1 9,0 11,6 21 12 48 26 W 1018,5 20 0 0,0
12.12.2019 02:00:00 8,1 1,7 7,4 9,0 11,6 21 12 43 23 W 1017,9 20 0 0,0
12.12.2019 01:00:00 8,4 1,5 6,7 9,0 11,6 17 9 34 18 WNW 1018,2 20 0 0,0
12.12.2019 00:00:00 8,2 1,6 6,9 9,0 11,6 21 11 57 31 W 1019,1 20 0 0,0
11.12.2019 23:00:00 8,1 1,7 5,3 9,1 11,6 21 12 51 28 W 1019,3 20 0 0,0
11.12.2019 22:00:00 7,0 2,7 4,3 9,1 11,6 21 11 40 22 W 1019,8 20 0 0,6
11.12.2019 21:00:00 6,8 1,9 4,2 9,1 11,6 24 13 56 30 WNW 1020,1 16 0 0,0
11.12.2019 20:00:00 6,8 0,5 3,1 9,1 11,6 12 6 26 14 W 1019,5 20 0 0,0
11.12.2019 19:00:00 6,6 0,7 4,4 9,1 11,6 14 7 30 16 W 1020,4 20 0 0,0
11.12.2019 18:00:00 7,2 1,1 4,9 9,1 11,6 11 6 34 19 W 1020,2 20 0 0,0
11.12.2019 17:00:00 6,8 2,1 5,0 9,1 11,6 0 0 29 16 N 1021,1 20 13 0,0
11.12.2019 16:00:00 6,2 2,3 4,9 9,0 11,6 16 8 40 22 W 1021,2 20 0 0,4
11.12.2019 15:00:00 6,1 3,8 5,1 9,0 11,6 17 9 55 30 W 1021,2 11 0 2,1
11.12.2019 14:00:00 7,3 5,4 6,7 9,0 11,6 23 12 46 25 WNW 1020,6 8 0 2,6
11.12.2019 13:00:00 8,7 6,5 7,9 9,0 11,6 15 8 49 26 W 1019,7 6 0 1,6
11.12.2019 12:00:00 10,7 5,9 8,9 9,0 11,6 21 12 41 22 WNW 1018,9 20 0 0,0
11.12.2019 11:00:00 8,5 1,9 7,4 9,0 11,6 8 4 24 13 NNE 1019,6 20 0 0,0
11.12.2019 10:00:00 7,4 1,5 6,2 9,1 11,6 10 5 15 8 NW 1018,7 20 0 0,0
11.12.2019 09:00:00 7,4 0,4 3,1 9,1 11,6 8 5 19 11 SE 1017,1 20 0 0,0
11.12.2019 08:00:00 5,0 0,7 3,2 9,1 11,6 0 0 9 5 N 1017,9 20 0 0,0
11.12.2019 07:00:00 6,1 0,0 4,1 9,2 11,6 4 2 21 11 SSW 1018,1 20 0 0,0
11.12.2019 06:00:00 5,8 0,5 2,5 9,2 11,6 6 4 22 12 S 1018,6 20 0 0,0
11.12.2019 05:00:00 6,2 0,7 3,4 9,2 11,6 12 6 24 13 SSE 1019,4 20 0 0,0
11.12.2019 04:00:00 4,9 1,0 2,3 9,4 11,6 5 3 11 6 SE 1020,7 20 0 0,0
11.12.2019 03:00:00 2,9 1,4 0,3 9,4 11,7 4 2 6 3 WNW 1021,9 20 0 0,0
11.12.2019 02:00:00 1,5 0,2 -0,7 9,4 11,6 4 2 8 4 W 1022,7 20 0 0,0
11.12.2019 01:00:00 2,8 0,4 -2,2 9,5 11,6 7 4 14 7 SSE 1022,7 20 0 0,0
11.12.2019 00:00:00 0,9 -0,4 -2,1 9,5 11,7 2 1 8 4 WNW 1023,8 20 0 0,0
10.12.2019 23:00:00 2,0 1,0 -1,2 9,5 11,7 0 0 4 2 N 1024,0 20 0 0,0
10.12.2019 22:00:00 3,3 2,3 0,1 9,5 11,7 3 2 5 3 ESE 1024,3 20 0 0,0
10.12.2019 21:00:00 3,8 2,3 1,4 9,5 11,6 0 0 23 12 N 1024,6 20 0 0,0
10.12.2019 20:00:00 4,6 2,6 0,4 9,5 11,7 10 5 23 12 SSE 1024,6 20 0 0,0
10.12.2019 19:00:00 5,6 2,8 2,7 9,5 11,6 6 3 32 17 WSW 1025,3 20 0 0,0
10.12.2019 18:00:00 6,3 2,6 2,8 9,5 11,7 13 7 24 13 SE 1024,9 20 0 0,0
10.12.2019 17:00:00 7,7 2,6 4,8 9,4 11,7 5 3 14 8 WNW 1025,9 20 27 0,0
10.12.2019 16:00:00 11,2 1,7 15,2 9,4 11,7 5 3 10 6 NNW 1025,6 20 60 0,0
10.12.2019 15:00:00 12,1 2,5 17,7 9,3 11,7 3 1 9 5 E 1025,7 20 60 0,0
10.12.2019 14:00:00 10,8 2,1 17,6 9,3 11,7 5 3 16 8 E 1027,0 20 60 0,0
10.12.2019 13:00:00 10,8 4,3 12,6 9,3 11,7 5 3 16 9 SE 1027,7 20 52 0,0
10.12.2019 12:00:00 9,4 3,1 12,6 9,3 11,7 9 5 18 10 SE 1029,4 20 60 0,0
10.12.2019 11:00:00 7,9 3,4 10,2 9,4 11,7 13 7 18 10 SE 1030,9 20 60 0,0
10.12.2019 10:00:00 6,3 3,6 2,7 9,4 11,7 7 4 16 8 SSE 1031,3 20 53 0,0
10.12.2019 09:00:00 3,3 2,4 0,4 9,4 11,7 11 6 14 8 SE 1032,3 20 0 0,0
10.12.2019 08:00:00 4,2 3,5 2,1 9,5 11,8 3 2 8 5 ESE 1032,3 20 0 0,0
10.12.2019 07:00:00 5,3 4,6 4,6 9,5 11,7 6 3 11 6 SSE 1032,0 18 0 0,0
10.12.2019 06:00:00 5,4 4,5 4,2 9,5 11,7 3 2 16 9 ENE 1031,9 12 0 0,2
10.12.2019 05:00:00 5,7 4,3 5,0 9,5 11,7 4 2 22 12 W 1032,2 15 0 0,4
10.12.2019 04:00:00 5,7 4,0 5,0 9,5 11,7 11 6 25 13 W 1032,6 16 0 1,2
10.12.2019 03:00:00 6,1 4,6 5,1 9,5 11,7 14 7 31 17 W 1032,4 10 0 1,0
10.12.2019 02:00:00 5,9 3,9 5,1 9,6 11,7 16 9 32 17 W 1032,0 8 0 1,7
10.12.2019 01:00:00 6,2 5,2 4,9 9,6 11,8 15 8 35 19 WNW 1031,9 6 0 3,2
10.12.2019 00:00:00 5,6 3,9 4,2 9,6 11,7 26 14 48 26 NNW 1031,8 6 0 1,2
09.12.2019 23:00:00 8,2 3,8 7,1 9,6 11,7 21 11 42 23 WNW 1030,5 20 0 0,0
09.12.2019 22:00:00 8,1 3,9 6,4 9,6 11,8 24 13 55 30 WNW 1029,9 20 0 0,0
09.12.2019 21:00:00 7,7 4,8 6,4 9,6 11,8 29 15 59 32 WNW 1029,2 15 0 0,4
09.12.2019 20:00:00 8,1 4,1 6,1 9,6 11,7 27 14 61 33 WNW 1028,5 20 0 0,2
09.12.2019 19:00:00 8,2 4,6 6,6 9,6 11,8 29 15 54 29 WNW 1028,1 20 0 0,0

tt = temperature
td = dewpoint
tt 5cm = temperature 5cm
tt -20cm = temperature -20cm
tt -100cm = temperature -100cm
ff = wind speed
fx = gusts
dd = wind direction
ppp = reduced air pressure
vv = visibility
sd = sunshine duration
rr = precipitation

Next stations